Track STARLINK-2427 now! 10-day predictions STARLINK-2427 is classified as:
1 47837U 21018BC 21110.83335648 -.00086833 00000-0 -61897-3 0 9990 2 47837 53.0493 346.8329 0001101 90.2139 180.9794 15.73260064 7286